Weather in Nizhneshadrino

Russia / Krasnoyarsk Krai     59°55′06″N   90°38′39″E
temp.,
°C
wind,
m/s
gust,
m/s
humid.,
%
clouds,
%
prec.,
mm/h
press.,
hPa
HPBL,
m
6 may, thu
thu601:00+1e1499100 0.7 1010351
04:00+1ne1299100 0.2 1010104
07:00+2ne019493 0.2 101186
10:00+6ese227334 0.0 1011836
13:00+9ese226627 0.0 1011971
16:00+10ese457095 0.0 1010896
19:00+6ese4982100 0.0 1010356
22:00+5ese51386100 0.0 1009427
7 may, fri
fri701:00+4se61683100 0.0 1008518
04:00+5se61780100 0.1 1006601
07:00+5se7187792 0.4 1005675
10:00+8sse71573100 0.1 1003860
13:00+8sse51180100 0.8 1003928
16:00+6se1196100 2.1 100331
19:00+6n149999 6.6 1004175
22:00+3wnw119897 0.2 100510
8 may, sat
sat801:00+3ssw119827 0.3 100611
04:00+1sw229992 0.0 100725
07:00+3wsw3893100 0.3 1008717
10:00+4sw3796100 0.5 1008731
13:00+5ssw3487100 1.2 1008769
16:00+4wsw2497100 2.0 1008826
19:00+2nw3796100 4.1 1010398
22:00+2wnw2598100 0.3 1011366
9 may, sun
sun901:00+2nnw2898100 1.3 1011544
04:00+3n3893100 0.0 1013563
07:00+4nnw278598 0.0 1016543
10:00+6nnw4570100 0.1 10171208
13:00+7n3571100 0.1 10191070
16:00+8nnw236998 0.1 10201015
19:00+7nne138094 0.6 1021372
22:00+4n119051 0.1 102210
10 may, mon
mon1001:00+3ne1192100 0.1 102317
04:00+4ne1190100 0.0 102318
07:00+5ne1586100 0.0 1023234
10:00+9e246960 0.0 1023667
13:00+13e455136 0.1 10221902
16:00+12e455179 0.0 10221537
19:00+11ene46575 0.0 10221035
22:00+6ene310814 0.0 1023241